Other Public Products
Issued by NWS Grand Forks, ND

Home | Current Version | Previous Version | Graphics & Text | Print | Product List | Glossary On
Versions: 1 2 3 4 5 6 7 8 9 10 11 12 13 14 15 16 17 18 19 20 21 22 23 24 25 26 27 28 29 30 31 32 33 34 35 36 37 38 39 40 41 42 43 44 45 46 47 48 49 50
214
FPUS83 KFGF 182110
OPUFGF
PRAIRIE TO PINES WEATHER ROUNDUP
NATIONAL WEATHER SERVICE EASTERN NORTH DAKOTA/GRAND FORKS ND
300 PM CST SAT NOV 18 2017

 **SATELLITE DATA USED TO AUGMENT SKY COVER AT AUTOMATED STATIONS**
 *****  WEATHER ACROSS EASTERN NORTH DAKOTA  *****

CITY           SKY/WX    TMP DP  RH WIND       PRES   REMARKS
GRAND FORKS    FAIR      21  10  62 NW16G26   30.03S WCI   7
GRND FORKS AFB FAIR      20   8  61 NW15      30.03S WCI   6
GRND FORKS NWS   N/A     19 N/A N/A NW12        N/A  WCI   7
BUXTON         NOT AVBL
DEVILS LAKE    FAIR      18   8  65 W16       30.03R WCI   3
FARGO          FAIR      25   9  50 NW18G30   30.03S WCI  11
WAHPETON ARPT  NOT AVBL
$$

 *****  WEATHER ACROSS CENTRAL AND WESTERN NORTH DAKOTA  *****

CITY           SKY/WX    TMP DP  RH WIND       PRES   REMARKS
JAMESTOWN      FAIR      23  10  57 NW20G29   30.04S WCI   8
BISMARCK       FAIR      35  17  47 NW14      30.10S
MINOT          FAIR      28  10  46 W21       30.04S WCI  15
MINOT AFB      FAIR      25   9  50 NW18      30.02S WCI  12
GARRISON         N/A     28  15  58 W17G26    30.06S WCI  16
WILLISTON      FAIR      30  13  49 SW14      30.06F WCI  19
DICKINSON      FAIR      33  16  49 W12       30.04F WCI  24
HETTINGER      FAIR      37  18  46 W16       30.08S
$$

 *****  OTHER OBSERVATIONS NORTHEAST NORTH DAKOTA  *****

CITY           SKY/WX    TMP DP  RH WIND       PRES   REMARKS
WALHALLA       FAIR      19   7  58 W10       30.00S WCI   8
LANGDON        FAIR      18   9  68 W24G30    29.97R WCI   0
CAVALIER       FAIR      18   7  62 W15       30.01R WCI   3
GRAFTON        FAIR      18   9  68 NW16      30.04F WCI   3
CANDO          FAIR      18   7  62 W18       30.04S WCI   2
FORT TOTTEN      N/A     21   7  54 NW9       29.95S WCI  11
ROLLA          FAIR      18   1  49 W15       29.98F WCI   3
RUGBY          FAIR      18   9  68 NW18      30.04S WCI   2
 ***** THE ABOVE OBSERVATIONS ARE NON NWS ARE NOT QUALITY
        CONTROLLED AND MAY MIS-REPORT RAIN FOR SNOW...
$$

 *****  OTHER OBSERVATIONS SOUTHEAST NORTH DAKOTA *****

CITY           SKY/WX    TMP DP  RH WIND       PRES   REMARKS
COOPERSTOWN    FAIR      19  10  68 W21G28    30.04R WCI   3
VALLEY CITY    FLURRIES  21   9  58 NW16G23   30.06S WCI   7
OAKES            N/A     27   9  46 NW23G30   30.06R WCI  12
GWINNER          N/A     27   9  46 NW22G28   30.06R WCI  12
SHEYENNE NWR     N/A     25   8  48 NW14      29.95S WCI  13
BUFFALO        NOT AVBL
WYNDMERE       NOT AVBL
 ***** THE ABOVE OBSERVATIONS ARE NON NWS ARE NOT QUALITY
       CONTROLLED AND MAY MIS-REPORT RAIN FOR SNOW...
$$

  *****  WEATHER ACROSS NORTHERN MINNESOTA  *****

CITY           SKY/WX    TMP DP  RH WIND       PRES   REMARKS
FLAG ISLAND    CLOUDY    16   9  73 W15G21    29.91S WCI   1
WARROAD        CLOUDY    16   9  73 W13G20    29.94R WCI   2
ROSEAU         FLURRIES  18  10  73 W12G17    29.95S WCI   5
HALLOCK        FAIR      18   9  68 W17       30.00S WCI   2
THF RVR FALLS  FLURRIES  16  10  77 W17       29.99S WCI   0
HALSTAD        NOT AVBL
FOSSTON        FLURRIES  16   9  73 W13G24    29.98S WCI   2
BAUDETTE       CLOUDY    16   8  71 NW13G24   29.91R WCI   2
WASKISH        FLURRIES  18  12  79 W16G22    29.92R WCI   3
CROOKSTON      FAIR      19  10  68 NW18      30.03S WCI   4
$$
  *****  WEATHER ACROSS CENTRAL AND WEST MINNESOTA  *****

CITY           SKY/WX    TMP DP  RH WIND       PRES   REMARKS
BEMIDJI        FLURRIES  17  10  72 NW22      29.93R WCI   0
PARK RAPIDS    FLURRIES  19  11  70 NW18G26   29.93R WCI   4
WADENA         FLURRIES  18  12  79 NW15      29.96S WCI   3
DETROIT LAKES  PTSUNNY   21  12  68 NW16      29.99S WCI   7
MOORHEAD       FAIR      25   9  50 NW21      30.04R WCI  10
FERGUS FALLS   FAIR      23  12  63 NW21      30.03S WCI   8
ELBOW LAKE     FAIR      23  13  64 W18G28    30.00S HAZE    WCI   9
MORRIS MN      FAIR      27  14  59 NW21G32   29.99S WCI  13
STAPLES        PTSUNNY   19  12  73 NW16      29.94R WCI   5
WHEATON        FAIR      27  10  50 NW16G26   30.05S WCI  14
$$
  *****  WEATHER ELSEWHERE ACROSS MINNESOTA  *****

CITY           SKY/WX    TMP DP  RH WIND       PRES   REMARKS
DULUTH         PTSUNNY   24  15  68 NW22G28   29.80R WCI   9
INTRNTL FALLS  LGT SNOW  18   9  68 NW15G25   29.88R WCI   4
ELY            FLURRIES  21  16  79 NW6       29.79S WCI  14
CLOQUET        PTSUNNY   25  14  63 NW16G26   29.82R WCI  12
BRAINERD       CLOUDY    25  13  60 NW15      29.91S WCI  13
HIBBING        FLURRIES  21  14  74 NW15      29.84R WCI   8
ALEXANDRIA     FAIR      22  13  68 NW22G29   29.96R WCI   6
SAINT CLOUD    FAIR      29  17  61 NW16G26   29.90S WCI  17
MINNEAPOLIS    FAIR      33  20  58 NW24G30   29.87R WCI  20
$$

  *****  WEATHER ACROSS SOUTH DAKOTA  *****

CITY           SKY/WX    TMP DP  RH WIND       PRES   REMARKS
SIOUX FALLS    FAIR      37  20  50 NW23G30   30.03R
BROOKINGS      FAIR      32  16  51 NW22G30   30.00S WCI  19
WATERTOWN      FAIR      30  13  49 NW22      30.00S WCI  17
HURON          FAIR      35  14  42 NW21      30.08S WCI  24
SISSETON         N/A     29  12  49 NW21G30   30.02S WCI  16
ABERDEEN       FAIR      32  14  47 NW20G30   30.08R WCI  20
MITCHELL       FAIR      37  18  46 NW20      30.10S
PIERRE         FAIR      35  21  56 NW14      30.11F
MOBRIDGE       FAIR      35  17  47 NW16      30.08S
RAPID CITY     PTSUNNY   46  17  31 NW17      30.10F
$$

  *****  SOME WEATHER IN NEARBY STATES *****

CITY           SKY/WX    TMP DP  RH WIND       PRES   REMARKS
GLASGOW MT     FAIR      37  21  52 W5        30.06S
GREAT FALLS MT FAIR      41  18  39 SW24G38   30.11R
CHEYENNE WY    FAIR      38  13  35 NW13G21   30.17F
SCOTTSBLUFF NE FAIR      44  13  28 NW16      30.18F
OMAHA NE       FAIR      46  28  49 NW25G35   30.01R
DES MOINES IA  FAIR      45  28  51 NW21G35   29.89R
DAVENPORT IA   FAIR      41  35  79 NW16G25   29.72R
CHICAGO IL     CLOUDY    39  35  86 N18G28    29.53R
EAU CLAIRE WI  FAIR      37  23  56 NW15      29.77R
LA CROSSE WI   FAIR      44  29  55 NW15      29.75R
$$

  *****  SOME NATIONAL WEATHER *****

CITY           SKY/WX    TMP DP  RH WIND       PRES   REMARKS
LA GUARDIA NY  CLOUDY    52  39  61 S10       29.66F
RALEIGH NC     PTSUNNY   65  50  58 SW18      29.77F
ATLANTA GA     CLOUDY    67  58  72 SW8       29.81F
NEW ORLEANS LA PTSUNNY   81  67  62 SW13G24   29.84S
OKLAHOMA CITY  PTSUNNY   53  31  42 N26G33    30.15R
ALBUQUERQUE NM FAIR      49   2  14 NW8       30.30F
SALT LAKE CITY FAIR      42  20  41 S6        30.41F
LOS ANGELES CA FAIR      73  52  47 W9        30.09F
BOISE ID       FAIR      47  23  38 SE15      30.34F
SEATTLE WA     PTSUNNY   52  38  58 VRB3      30.20F
$$

*** WEATHER ACROSS MANITOBA...SASKATCHEWAN AND ONTARIO ***
                ***ONTARIO***

CITY           SKY/WX    TMP DP  RH WIND       PRES   REMARKS
GERALDTON      LGT SNOW  18  16  93 NW5       29.69R FOG     WCI  11
THUNDER BAY    MOCLDY    25  19  80 NW9       29.76R WCI  15
SIOUX LOOKOUT  LGT SNOW  16  10  79 NW8       29.78R WCI   5
TORONTO        LGT RAIN  45  45 100 SE6       29.31F VSB 3/4
BIG TROUT LK   FLURRIES  10   3  72 W15G22    29.71R WCI  -6
PICKLE LAKE    FLURRIES  14   7  73 NW12G22   29.71R WCI   0
DRYDEN         FLURRIES  16  10  79 NW9G17    29.81R WCI   4
KENORA         SNOWSHWR  14   7  73 W14       29.87R DRFTSNOWWCI  -1
$$
                *** MANITOBA***

CITY           SKY/WX    TMP DP  RH WIND       PRES   REMARKS
BRANDON        PTSUNNY   12   3  67 W14       29.99F WCI  -3
DAUPHIN        SUNNY     14   5  67 W28G33    29.93F WCI  -6
ISLAND LAKE    LGT SNOW  10   3  72 W15G29    29.77S DRFTSNOWWCI  -6
PILOT MOUND      N/A     14   5  67 W8          N/A  WCI   3
THE PAS        NOT AVBL
THOMPSON       FLURRIES  10   3  72 W16G23    29.69S WCI  -7
WINNIPEG       MOSUNNY   14   5  67 W14       29.98S WCI  -1
LYNN LAKE      CLOUDY     9   3  78 W12G26    29.69S WCI  -6
CHURCHILL      LGT SNOW   3   0  85 SW15      29.48F DRFTSNOWWCI -15
$$
                ***SASKATCHEWAN***

CITY           SKY/WX    TMP DP  RH WIND       PRES   REMARKS
ESTEVAN        PTSUNNY   21  10  63 W12       30.03F WCI   9
KINDERSLEY     PTSUNNY   10   3  72 SW8       29.92F WCI  -1
LLOYDMINSTER   CLOUDY    19  12  73 S5        29.82F WCI  13
PRINCE ALBERT  MOSUNNY    7  -2  66 SW8       29.97F WCI  -6
REGINA         MOSUNNY   14   9  79 W3        30.00S
YORKTON        PTSUNNY   12   5  73 W14       29.96F WCI  -3
N. BATTLEFORD  SUNNY     10   3  72 SW5       29.93F WC



USA.gov is the U.S. government's official web portal to all federal, state and local government web resources and services.